This is the latest recevied weather packets stored in our database for station/object OE3AOG. If no packets are shown the sender has not sent any weather packets the latest 10 day(s).
| Time | Temp. | Humidity | Pressure | Rain* | Wind** | Luminosity | Snow |
|---|---|---|---|---|---|---|---|
| 1777586118 | 5.56° C | 50% | 1027.4 hPa | 0 mm | - | 0 W/m² | - |
| 1777584918 | 5.56° C | 51% | 1027.4 hPa | 0 mm | - | 0 W/m² | - |
| 1777584326 | 5.56° C | 50% | 1027.4 hPa | 0 mm | - | 0 W/m² | - |
| 1777583118 | 5.56° C | 50% | 1027.3 hPa | 0 mm | - | 0 W/m² | - |
| 1777582525 | 6.11° C | 49% | 1027.4 hPa | 0 mm | - | 0 W/m² | - |
| 1777581918 | 6.11° C | 49% | 1027.4 hPa | 0 mm | - | 0 W/m² | - |
| 1777581326 | 6.11° C | 49% | 1027.4 hPa | 0 mm | - | 0 W/m² | - |
| 1777580718 | 6.11° C | 48% | 1027.3 hPa | 0 mm | - | 0 W/m² | - |
| 1777580126 | 6.11° C | 48% | 1027.3 hPa | 0 mm | - | 0 W/m² | - |
| 1777579517 | 6.67° C | 47% | 1027.2 hPa | 0 mm | - | 0 W/m² | - |
| 1777577726 | 7.22° C | 45% | 1027 hPa | 0 mm | - | 0 W/m² | - |
| 1777577117 | 7.78° C | 44% | 1027 hPa | 0 mm | - | 0 W/m² | - |
| 1777576546 | 7.78° C | 42% | 1027 hPa | 0 mm | - | 0 W/m² | - |
| 1777575327 | 8.33° C | 40% | 1026.6 hPa | 0 mm | - | 0 W/m² | - |
| 1777574126 | 9.44° C | 38% | 1026.4 hPa | 0 mm | - | 0 W/m² | - |
| 1777573518 | 9.44° C | 38% | 1026.3 hPa | 0 mm | - | 0 W/m² | - |
| 1777572318 | 10.56° C | 36% | 1026.3 hPa | 0 mm | - | 4 W/m² | - |
| 1777571726 | 11.11° C | 34% | 1026.2 hPa | 0 mm | - | 9 W/m² | - |
| 1777571119 | 11.67° C | 32% | 1026.2 hPa | 0 mm | - | 13 W/m² | - |
| 1777569925 | 12.78° C | 30% | 1026.1 hPa | 0 mm | - | 23 W/m² | - |
| 1777569326 | 12.78° C | 29% | 1026.1 hPa | 0 mm | - | 27 W/m² | - |
| 1777566927 | 13.33° C | 27% | 1025.9 hPa | 0 mm | - | 40 W/m² | - |
| 1777565726 | 13.89° C | 26% | 1026 hPa | 0 mm | - | 47 W/m² | - |
| 1777563919 | 14.44° C | 26% | 1026 hPa | 0 mm | - | 126 W/m² | - |
| 1777563326 | 14.44° C | 26% | 1026 hPa | 0 mm | - | 242 W/m² | - |
* Rain latest hour (hover to see other rain measurements)
** Current wind speed in m/s (hover to see current wind gust speed)